Location: Bothwell
(42.3833°S, 147.0000°E)
Time: 21:16:03
(UTC+10:00)

CUTE 1.7 + AOD 2 - Pass Details

Date: 04 February 2023
Orbit: 584 x 601 km, 97.7° (Epoch: 02 April)

Event Time Altitude Azimuth Distance (km) Brightness Sun altitude
Exits shadow 04:55:35 22° 293° (WNW) 1,316 ? -14.0°
Maximum altitude 04:56:26 23° 274° (W) 1,266 ? -13.8°
Drops below altitude 10° 04:59:51 10° 220° (SW) 1,945 ? -13.3°
Sets 05:02:24 0° 206° (SSW) 2,859 ? -13.0°
